SCP
1 1 2 1 1 1 1 1 2 2 2 2 2 1 1 1 1 1 1 0 0 0 0 0 0 0 0 0 0 0 0 0 0 0 0 0 0 0 0 0 0 0 0
1 1 2 2 2 1 1 1 2 2 2 2 2 1 1 1 1 1 1 1 0 0 0 0 0 0 0 0 0 0 0 0 0 0 0 0 0 0 0 0 0 0 0
1 1 2 2 2 2 1 1 1 2 2 2 2 1 1 1 1 1 1 1 1 1 1 1 1 1 1 0 0 0 0 1 0 0 0 0 0 0 0 0 0 0 0
1 1 2 2 2 2 2 2 1 2 2 2 2 1 1 1 1 1 1 1 1 1 1 1 1 1 1 1 0 0 1 1 1 0 0 0 0 0 0 0 0 0 0
1 2 2 2 2 2 2 2 2 2 2 2 1 1 1 1 1 1 1 1 1 1 1 1 1 1 1 1 0 0 0 1 1 0 0 0 0 0 0 0 0 0 0
1 2 2 2 3 2 2 2 2 2 2 2 1 1 1 1 1 2 2 2 1 1 1 1 1 1 1 1 0 0 0 1 0 0 0 0 0 0 0 0 0 0 0
2 2 2 2 3 3 2 2 2 2 2 2 2 1 1 1 1 2 2 1 1 1 1 1 1 1 1 1 1 1 0 0 0 0 0 1 1 1 1 1 1 1 1
2 2 2 2 2 2 2 2 2 2 2 2 2 2 1 1 1 1 1 1 1 1 1 1 0 0 1 1 1 1 0 0 0 0 0 1 1 1 1 1 1 1 1
2 2 2 2 2 2 2 2 2 2 2 2 2 2 1 1 1 1 1 1 1 1 1 1 0 1 1 1 1 1 1 0 0 0 0 1 1 1 1 1 0 1 1
3 3 2 2 2 2 2 2 2 2 2 2 1 1 1 1 1 1 1 1 1 1 1 1 1 1 1 1 1 1 1 0 0 0 0 0 1 1 1 1 0 1 1
3 3 3 2 2 2 2 2 2 2 1 1 1 1 1 1 1 1 1 1 1 1 1 1 1 1 1 1 1 1 1 1 1 1 1 1 1 1 1 1 1 1 1
3 3 3 2 2 2 2 2 2 2 2 1 1 1 1 1 1 1 1 1 1 1 1 1 1 1 1 1 0 1 1 1 1 1 1 1 1 1 1 1 1 1 1
3 3 3 3 2 2 2 2 2 2 2 2 1 1 1 1 1 1 1 1 1 1 1 1 1 1 1 1 1 1 1 1 1 1 1 1 1 1 1 1 1 1 1
3 3 3 3 2 2 2 2 2 3 2 2 2 2 1 1 2 1 1 1 1 1 1 1 1 1 1 1 1 1 1 1 1 1 1 1 1 1 1 1 1 1 1
3 3 4 3 3 2 2 2 2 2 2 3 3 2 2 2 2 1 1 1 1 1 1 1 1 1 1 1 1 1 1 1 1 1 1 1 1 1 1 1 1 1 1
3 3 4 4 3 3 2 2 2 2 2 3 3 3 2 2 2 1 1 2 1 1 1 1 1 1 1 1 1 1 1 1 1 1 1 1 0 1 1 1 1 1 1
3 3 4 4 3 3 2 2 2 2 2 3 3 3 3 2 2 2 1 2 2 1 1 1 1 1 1 1 1 1 1 1 1 1 1 1 1 1 1 1 2 2 2
2 3 3 4 4 3 3 2 2 2 2 3 4 4 3 2 2 2 1 1 1 1 1 1 1 1 1 1 1 1 1 1 1 1 1 1 1 1 1 1 1 2 2
2 2 3 3 4 3 3 2 2 2 2 3 4 4 3 2 2 2 1 1 1 1 1 1 1 1 1 1 1 1 1 1 1 1 1 1 1 1 1 1 1 1 2
1 2 3 3 3 3 3 2 2 2 2 3 3 4 3 3 2 2 1 1 1 1 1 1 1 1 1 1 1 1 0 0 1 1 1 1 1 1 1 1 1 1 1
1 2 2 3 3 3 2 2 1 2 2 2 3 3 3 3 2 2 1 1 1 1 1 1 1 1 1 1 1 1 0 0 0 1 1 1 1 1 1 1 1 1 1
2 2 2 2 2 2 1 1 1 1 2 2 2 3 3 2 2 1 1 1 1 1 0 0 1 1 1 1 1 1 0 0 0 1 1 1 1 1 1 1 1 1 1
2 2 2 2 2 1 1 0 1 1 1 2 2 2 2 2 2 1 1 1 1 1 1 0 0 1 1 1 1 1 1 0 0 0 1 1 1 1 1 1 1 1 1
2 2 3 2 2 1 0 0 0 1 1 1 2 2 2 2 2 1 1 1 1 1 1 0 0 1 1 1 1 1 1 0 0 0 0 1 1 1 1 1 1 1 1
2 2 2 2 1 1 0 0 0 0 1 1 1 1 2 1 1 1 1 1 1 1 1 1 1 1 1 1 1 1 0 0 0 0 0 1 1 1 1 1 1 1 1
2 2 2 2 1 1 0 0 0 0 0 0 1 1 1 1 1 1 1 1 1 1 1 1 1 1 1 1 0 0 0 0 0 0 0 1 1 1 1 1 1 1 0
Wind_Speed
1 1 3 3 4 6 6 7 7 8 8 8 8 8 8 7 7 7 7 7 6 7 7 8 8 8 8 9 10 10 10 10 10 10 10 10 11 11 11 9 8 10 12
2 1 3 3 5 6 6 7 7 7 7 8 8 7 7 7 7 7 7 7 7 7 7 8 8 8 8 9 9 9 9 10 10 9 8 9 9 9 10 8 7 9 11
3 2 3 4 5 5 6 7 7 7 7 7 7 7 7 7 7 7 7 7 7 8 8 8 8 8 8 8 9 9 9 9 8 5 4 7 9 9 9 9 9 11 11
3 3 4 6 5 6 6 7 7 7 7 7 7 7 7 7 6 7 7 7 7 8 8 8 8 8 8 8 8 8 8 8 6 3 4 6 7 9 8 8 9 10 10
4 4 5 7 6 6 6 6 6 6 6 6 6 6 6 6 6 6 7 7 7 8 8 8 8 7 7 7 8 7 7 6 3 3 5 5 6 8 8 8 9 9 9
4 4 6 7 7 6 5 6 5 5 6 5 5 6 5 5 6 6 7 7 7 7 7 8 7 7 7 7 7 7 6 4 4 4 4 4 5 8 7 8 8 8 8
4 4 5 7 7 7 6 5 5 5 5 5 5 5 4 5 5 6 6 6 6 7 7 7 7 7 7 7 7 6 5 1 2 3 3 3 5 7 7 7 7 7 7
5 5 4 7 7 7 7 6 5 5 4 4 4 4 4 4 5 6 6 6 6 6 6 6 6 6 6 6 6 6 4 1 2 3 3 3 5 6 6 6 7 7 7
5 5 5 4 4 5 6 7 6 5 5 5 5 4 4 5 5 6 5 5 5 5 5 5 5 6 6 6 5 5 4 2 1 2 2 2 4 5 6 6 6 7 7
6 6 5 5 4 3 2 5 6 5 5 4 5 5 4 4 4 5 4 5 4 4 5 5 5 5 5 5 5 4 2 1 1 1 1 3 4 4 5 5 6 6 7
6 6 6 5 5 4 3 3 3 4 5 3 3 4 2 1 2 2 4 5 4 4 4 5 5 4 4 4 3 2 1 1 1 0 1 4 3 3 4 4 5 6 6
6 6 5 5 5 5 3 2 1 1 2 2 1 1 0 1 1 1 3 3 4 4 3 4 4 2 1 2 2 2 1 1 0 0 2 3 2 2 3 4 4 6 6
6 6 6 5 5 5 3 3 1 1 1 1 2 2 1 0 1 1 1 2 2 2 2 2 2 1 0 1 0 1 0 0 0 0 1 2 1 2 3 3 4 5 6
7 7 7 6 5 4 3 3 2 1 1 1 2 2 1 1 0 0 0 0 1 0 0 1 0 1 1 1 1 1 0 1 1 0 1 1 1 1 3 4 4 5 5
8 8 8 7 6 5 3 3 2 2 1 1 1 1 2 1 1 0 0 0 0 0 1 1 1 0 1 1 1 1 1 1 1 1 1 2 0 1 2 3 4 5 5
8 8 8 8 7 5 4 3 2 2 1 1 1 1 1 1 1 1 1 1 1 1 0 1 1 1 1 1 1 1 2 2 2 2 1 1 1 1 2 3 4 4 5
8 8 8 7 7 6 5 4 3 2 2 1 1 1 1 1 1 1 1 1 1 1 1 1 1 1 1 1 1 2 2 2 2 2 2 2 2 2 3 3 4 5 5
8 8 8 7 8 7 5 4 3 3 2 2 1 1 1 1 2 2 1 1 1 1 1 1 2 1 1 1 1 2 2 2 3 3 3 2 2 2 3 3 3 4 5
8 8 8 8 8 7 6 4 3 3 3 2 1 1 2 1 2 2 1 1 2 2 2 2 2 2 2 2 2 2 2 2 2 2 3 2 2 2 2 3 3 3 4
8 8 8 7 8 7 5 3 2 3 3 3 2 2 2 2 2 2 2 2 2 2 2 2 2 2 2 2 1 1 2 2 2 2 2 2 1 2 2 2 3 3 2
9 9 8 8 8 7 5 5 4 4 4 3 3 3 3 2 2 2 2 2 2 2 3 3 3 3 3 2 2 1 2 2 3 2 2 2 2 2 2 2 2 2 2
9 9 9 8 8 7 6 5 4 5 4 3 3 3 3 3 3 2 2 2 3 3 3 3 3 3 3 3 3 2 2 3 3 3 3 3 3 2 2 3 2 3 2
9 9 8 8 8 8 8 5 5 4 3 3 4 3 4 4 3 3 3 3 3 3 3 4 4 5 4 4 4 3 3 4 2 3 4 3 3 3 2 2 3 3 3
9 8 8 7 7 7 7 6 6 5 5 5 5 4 5 4 4 3 4 4 4 4 4 5 5 5 5 5 4 4 4 2 3 3 3 3 3 4 3 3 3 3 3
8 8 7 7 7 7 7 6 6 5 5 5 5 6 5 4 4 4 4 4 4 4 5 5 5 5 5 6 5 4 4 3 5 4 4 4 3 3 4 4 3 3 3
7 7 8 8 8 7 7 7 6 7 7 7 6 6 5 4 4 5 5 5 5 4 5 5 6 7 6 7 5 5 4 4 5 5 5 5 4 3 4 3 4 4 3
Wind_Direction
32 57 52 74 93 100 99 95 91 89 88 89 93 92 91 90 89 88 87 85 84 88 91 94 99 98 96 95 93 93 94 93 92 89 87 89 93 95 95 95 101 94 90
8 70 73 74 97 103 102 98 92 89 89 88 91 91 88 86 83 82 84 82 81 83 88 91 94 95 94 94 94 93 95 95 94 90 97 99 94 95 96 83 73 92 96
28 60 90 75 88 97 99 96 93 92 90 89 91 92 90 87 82 77 79 80 82 82 83 85 87 90 92 94 96 95 96 97 97 99 130 116 107 101 100 97 94 99 99
38 57 72 66 77 86 91 93 93 93 91 88 89 90 89 86 84 78 78 80 81 80 80 79 81 84 89 94 98 99 99 100 99 146 131 108 110 109 107 106 107 105 101
49 53 57 54 63 77 81 85 90 92 91 88 86 85 87 88 83 77 76 77 79 80 79 78 78 82 87 91 97 101 104 108 118 149 110 107 107 111 111 107 109 108 103
47 48 54 46 57 59 71 77 83 90 92 90 87 86 86 88 87 80 72 73 76 81 84 82 82 80 88 94 94 96 103 124 169 121 113 116 115 113 114 113 111 112 111
49 38 53 43 52 53 53 63 74 79 85 90 89 89 86 87 86 81 71 71 76 79 85 89 87 82 85 94 96 93 89 89 147 116 112 113 109 116 124 122 121 118 121
50 41 48 44 44 48 47 46 52 60 65 76 82 83 84 84 84 78 71 72 76 81 81 88 94 90 85 88 93 90 76 9 140 125 120 115 105 124 131 129 125 125 126
44 41 35 37 41 46 46 40 39 45 55 59 65 64 67 71 72 72 69 69 74 76 78 83 89 90 87 84 86 80 58 349 163 118 123 113 113 131 132 134 132 127 128
35 29 25 19 20 23 47 44 34 36 43 53 56 55 52 72 77 70 68 61 63 65 66 73 80 88 85 81 80 74 60 266 149 128 124 106 114 139 140 138 140 133 131
26 23 16 10 9 4 0 37 34 39 40 49 74 64 67 109 110 103 70 53 56 61 66 67 72 79 85 90 80 76 207 219 151 86 86 82 116 148 156 147 146 141 139
7 10 10 6 2 357 355 7 23 34 40 28 50 77 110 101 86 65 86 66 61 63 72 71 72 98 147 132 124 187 202 197 164 119 87 82 126 152 158 153 151 153 151
360 3 2 0 1 358 357 350 3 3 15 8 22 26 358 70 102 84 115 121 115 115 114 102 133 142 158 134 196 219 272 299 301 80 105 96 144 172 174 166 158 157 154
2 2 359 358 356 358 356 354 343 354 356 6 3 5 352 343 311 92 177 205 183 176 162 183 196 157 183 195 212 217 232 258 271 312 77 91 201 216 197 181 168 163 161
360 358 356 355 352 349 353 348 347 333 339 337 351 352 347 332 319 244 215 234 237 217 214 242 240 209 202 220 235 235 251 256 253 241 119 80 326 239 218 200 183 175 171
355 354 354 353 349 347 348 344 334 326 320 314 342 346 339 330 314 300 259 260 249 231 241 248 244 244 232 237 240 246 250 263 254 240 243 160 181 235 230 221 206 191 187
352 351 352 349 347 344 342 337 332 321 318 311 321 315 331 335 309 278 265 250 265 249 225 222 219 239 235 233 244 253 253 254 262 253 248 241 208 197 216 222 212 202 195
353 352 352 350 348 342 336 331 325 320 319 303 285 288 316 326 307 283 273 266 279 256 233 222 213 217 225 232 243 252 252 248 260 266 256 246 240 223 198 208 215 205 199
356 353 352 353 349 342 332 323 321 326 318 307 288 298 300 284 283 276 270 281 261 247 236 233 223 216 222 228 246 254 260 260 258 257 254 254 251 245 222 160 174 187 195
359 357 355 354 352 343 333 325 324 330 322 317 301 302 299 290 278 273 272 275 266 252 242 237 231 223 227 223 239 260 273 264 252 248 244 239 240 247 237 212 185 165 173
3 1 357 357 356 351 343 336 325 323 318 317 306 296 288 286 276 266 275 269 265 258 252 240 233 222 221 211 220 246 263 255 244 240 246 238 225 234 238 229 223 205 181
1 358 355 356 354 351 344 333 320 312 303 303 310 298 287 279 273 262 261 257 255 256 253 247 232 231 228 215 216 214 221 227 221 241 242 242 237 228 227 230 227 226 225
1 356 352 351 351 350 345 337 330 320 308 309 312 303 294 282 267 268 258 256 252 248 246 247 240 233 228 226 225 226 219 220 216 213 227 235 232 232 230 227 231 235 230
355 351 349 348 350 352 348 343 340 328 314 310 311 306 297 283 266 263 260 254 249 247 246 242 241 244 229 227 228 246 261 258 225 211 213 226 239 244 243 237 232 233 236
350 349 348 348 351 351 345 339 331 322 313 309 309 308 301 287 270 262 258 254 250 249 246 245 245 245 236 231 225 230 243 246 245 239 234 223 228 242 249 248 245 241 236
352 352 350 350 347 345 340 335 329 320 317 313 311 307 301 294 282 272 266 255 249 248 246 245 244 242 241 238 232 229 231 230 231 234 236 227 231 237 247 251 248 243 239